Regional Weather Roundup
Issued by NWS Binghamton, NY

Current Version | Previous Version | Text Only | Print | Product List | Glossary On
Versions: 1 2 3 4 5 6 7 8 9 10 11 12 13 14 15 16 17 18 19 20 21 22 23 24 25 26 27 28 29 30 31 32 33 34 35 36 37 38 39 40 41 42 43 44 45 46 47 48 49 50
000
ASUS41 KBGM 070410
RWRBGM
RWRBGM
BINGHAMTON REGIONAL WEATHER ROUNDUP
NATIONAL WEATHER SERVICE BINGHAMTON NY
1200 AM EDT TUE JUL 07 2015

Note: "fair" indicates few or no clouds below 12,000 feet with no
significant weather and/or obstructions to visibility.

* = Station(s) that does not report precipitation, such as rain,
snow, etc, also no thunder or fog.

!NYZ009-015>018-022>025-036-037-044>046-055>057-062-070500
...CENTRAL NEW YORK...

CITY           SKY/WX    TMP DP  RH WIND       PRES   REMARKS
BINGHAMTON     PTCLDY    69  65  86 S8        30.07F
CORTLAND       FAIR      70  66  88 CALM      30.07S
DANSVILLE      CLEAR     70  67  90 S3        30.00F
ELMIRA         MOCLDY    69  68  96 N3        30.02F
ITHACA         CLEAR     71  66  84 SE6       30.05F
HORNELL        CLEAR     66  64  94 SE3       30.05S FOG
MONTICELLO     CLOUDY    68  66  94 S5        30.13F
NORWICH        CLEAR     68  64  88 CALM      30.07F
ONEONTA        CLEAR     68  63  83 CALM      30.10F
PENN YAN       CLEAR     69  66  90 CALM      30.01F
ROME           CLEAR     73  65  75 E7        30.04S
SIDNEY         CLEAR     75  72  88 S7        30.07F
SYRACUSE       PTCLDY    73  67  81 E6        30.00F
$$

!PAZ038>040-043-044-047-048-072-070500
...NORTHEAST PENNSYLVANIA...

CITY           SKY/WX    TMP DP  RH WIND       PRES   REMARKS
HAZLETON       CLOUDY    72  70  94 SE9       30.12S
SCRANTON       CLOUDY    76  68  76 CALM      30.07S
TOWANDA*       PTCLDY    73  68  83 MISG      30.03F
$$
&&
KEY
WCI = WIND CHILL INDEX
VSB = VISIBILITY
HX  = HEAT INDEX
$$


USA.gov is the U.S. government's official web portal to all federal, state and local government web resources and services.